Estación municipal de Monistrol de Calders (Moianès, P.N.de Sant Llorenç del Munt i l'Obac)

Consulta los datos en tiempo real de la estación municipal de Monistrol de Calders





Hora UTC 03:35
Temperatura 17.6 ºC
Humedad 86.0 %
Presión 1018.4 hPa
Pluja 0.0 mm
Velocidad viento 3.2 km/h
Dirección viento SSE

Webcam

Datos diarios 2026-09-05



Hora UTC (invierno +1h; verano +2h)
Temperatura (ºC) Humedad (%) Presión (hPa) Velocidad viento (km/h) Precipitación (mm)
Hora UTC Aire Humedad Presión Vel. Dir. Vel. Max Dir. Intent. máx 5 min.
00:05 20.3 82.0 1018.6 0.0 S 0.0 0.0
00:10 20.3 82.0 1018.6 0.0 SSE 3.2 0.0
00:15 20.2 82.0 1018.7 1.6 ESE 3.2 0.0
00:20 20.1 82.0 1018.6 1.6 SSE 3.2 0.0
00:25 19.9 82.0 1018.6 3.2 ESE 3.2 0.0
00:30 19.9 83.0 1018.6 3.2 S 6.4 0.0
00:35 19.9 83.0 1018.6 3.2 SSE 8.0 0.0
00:40 19.7 83.0 1018.5 4.8 SE 8.0 0.0
00:45 19.6 83.0 1018.5 1.6 SSE 4.8 0.0
00:50 19.5 83.0 1018.5 3.2 SSE 6.4 0.0
00:55 19.4 83.0 1018.5 0.0 SE 4.8 0.0
01:00 19.4 84.0 1018.5 1.6 SE 8.0 0.0
01:05 19.3 84.0 1018.5 4.8 SE 8.0 0.0
01:10 19.3 84.0 1018.5 3.2 SSE 4.8 0.0
01:15 19.2 84.0 1018.6 1.6 S 4.8 0.0
01:20 19.2 84.0 1018.6 1.6 SE 4.8 0.0
01:25 19.1 84.0 1018.5 3.2 S 6.4 0.0
01:30 18.9 84.0 1018.5 1.6 ESE 6.4 0.0
01:35 18.9 84.0 1018.5 3.2 SSE 6.4 0.0
01:40 18.9 84.0 1018.4 0.0 SSE 4.8 0.0
01:45 18.8 84.0 1018.4 0.0 SE 3.2 0.0
01:50 18.7 84.0 1018.4 4.8 SE 4.8 0.0
01:55 18.6 85.0 1018.4 3.2 S 6.4 0.0
02:00 18.6 85.0 1018.4 3.2 SE 6.4 0.0
02:05 18.4 85.0 1018.4 3.2 SSE 4.8 0.0
02:10 18.4 85.0 1018.3 1.6 SE 4.8 0.0
02:15 18.3 85.0 1018.4 4.8 SE 6.4 0.0
02:20 18.3 85.0 1018.3 3.2 S 6.4 0.0
02:25 18.2 85.0 1018.4 1.6 SSE 4.8 0.0
02:30 18.2 85.0 1018.3 1.6 ESE 3.2 0.0
02:35 18.2 85.0 1018.3 3.2 SE 3.2 0.0
02:40 18.1 85.0 1018.3 0.0 SSE 3.2 0.0
02:45 18.0 86.0 1018.3 1.6 ESE 4.8 0.0
02:50 18.0 85.0 1018.2 1.6 ESE 6.4 0.0
02:55 17.9 86.0 1018.3 3.2 SE 6.4 0.0
03:00 17.8 86.0 1018.4 1.6 ESE 4.8 0.0
03:05 17.8 86.0 1018.4 0.0 ESE 4.8 0.0
03:10 17.7 86.0 1018.4 3.2 SE 3.2 0.0
03:15 17.7 86.0 1018.5 3.2 ESE 8.0 0.0
03:20 17.6 86.0 1018.4 1.6 SE 8.0 0.0
03:25 17.6 86.0 1018.5 3.2 SSE 6.4 0.0
03:30 17.6 87.0 1018.5 3.2 SSE 6.4 0.0
03:35 17.6 86.0 1018.4 3.2 SSE 4.8 0.0
Máxima 20.3 87.0 1018.7 4.8 SE 8.0 0.0
Mínima 17.6 82.0 1018.2
Total 0.0